NOAA NWS Hourly Roundups by Site

Regional Weather Roundup for Omaha, NE

To Select Another Site Choose from List

Select Site:  

339
ASUS43 KOAX 211603
RWRNE

WEATHER ROUNDUP FOR NEBRASKA
NATIONAL WEATHER SERVICE OMAHA NE
1100 AM CDT WED AUG 21 2019

NOTES: SATELLITE DATA IS BEING USED TO AUGMENT CLOUD COVER ABOVE
       12000 FEET.
       "FAIR" INDICATES FEW OR NO CLOUDS BELOW 12,000 FEET WITH NO
       SIGNIFICANT WEATHER AND/OR OBSTRUCTIONS TO VISIBILITY.


NEZ001>004-019>022-054>056-211700-
NEBRASKA PANHANDLE

CITY           SKY/WX    TMP DP  RH WIND       PRES   REMARKS
SCOTTSBLUFF    PTSUNNY   71  60  68 MISG      30.21S
ALLIANCE       CLOUDY    69  60  73 SE8       30.20S
CHADRON        CLOUDY    68  61  78 SE10      30.18R
GORDON         CLOUDY    67  63  85 SE10      30.19R
KIMBALL        PTSUNNY   71  52  52 SE8       30.25S
SIDNEY         FAIR      72  56  57 SE6       30.23R
$$

NEZ057>060-069>072-079>082-211700-
SOUTHWEST NEBRASKA

CITY           SKY/WX    TMP DP  RH WIND       PRES   REMARKS
NORTH PLATTE   FAIR      73  64  73 CALM      30.14R
IMPERIAL       FAIR      73  59  61 VRB5      30.14S
LEXINGTON      CLOUDY    70  66  85 E7        30.11R
MCCOOK         FAIR      78  63  59 SE10      30.09R
OGALLALA       CLOUDY    71  64  77 N5        30.17R
$$

NEZ005>010-023>029-035>040-094-211700-
NORTH CENTRAL NEBRASKA

CITY           SKY/WX    TMP DP  RH WIND       PRES   REMARKS
VALENTINE      FAIR      76  62  62 E14       30.14S
AINSWORTH      FAIR      70  67  91 E10       30.14F
BROKEN BOW     PTSUNNY   72  66  81 NE6       30.11S
O`NEILL        LGT RAIN  66  65  96 CALM      30.15R
ORD            LGT RAIN  68  66  93 CALM      30.12R
THEDFORD       PTSUNNY   72  65  78 E10       30.17R
$$

NEZ041-046>049-061>064-073>077-083>087-211700-
SOUTH CENTRAL NEBRASKA

CITY           SKY/WX    TMP DP  RH WIND       PRES   REMARKS
GRAND ISLAND   PTSUNNY   72  66  81 E7        30.08R
AURORA         FAIR      67  67 100 N8        30.06R
HASTINGS       FAIR      71  65  81 S9        30.05R
HEBRON         RAIN      70  68  95 E9        30.11F
HOLDREGE       FAIR      72  67  85 SE12G17   30.07F
KEARNEY        PTSUNNY   71  66  84 E12       30.09R
YORK           FAIR      68  64  88 CALM      30.02F
$$

NEZ011>018-030>034-042>045-211700-
NORTHEAST NEBRASKA

CITY           SKY/WX    TMP DP  RH WIND       PRES   REMARKS
NORFOLK        CLOUDY    69  66  90 SE10      30.10R
BLAIR          PTSUNNY   71  70  96 N3        30.08F
COLUMBUS       PTSUNNY   70  67  90 E8        30.08F
FREMONT        LGT RAIN  71  69  92 W5        30.10F
TEKAMAH        FAIR      70  67  90 N8        30.09S
WAYNE          DRIZZLE   66  64  93 E5        30.10R
$$

NEZ050>053-065>068-078-088>093-211700-
SOUTHEAST NEBRASKA

CITY           SKY/WX    TMP DP  RH WIND       PRES   REMARKS
LINCOLN        PTSUNNY   73  68  84 NW5       30.09F
OMAHA EPPLEY   CLOUDY    73  70  90 N12       30.06F
BEATRICE       PTSUNNY   73  68  85 W7        30.12R
FALLS CITY     PTSUNNY   72  70  93 NW7       30.06R
NEBRASKA CITY  CLOUDY    74  72  92 N9        30.09R
PLATTSMOUTH    PTSUNNY   73  72  95 N5        30.07S
$$

NEZ044-045-051>053-067-211700-
OMAHA AREA

CITY           SKY/WX    TMP DP  RH WIND       PRES   REMARKS
OMAHA EPPLEY   CLOUDY    73  70  90 N12       30.06F
BLAIR          PTSUNNY   71  70  96 N3        30.08F
FREMONT        LGT RAIN  71  69  92 W5        30.10F
MILLARD        CLOUDY    74  71  91 N5        30.07F
PLATTSMOUTH    PTSUNNY   73  72  95 N5        30.07S
WAHOO          RAIN      71  70  99 N6        30.07F
$$



 

View Past Reports for Omaha, NE.

Products Courtesy of NOAA-NWS
NWS Information Parsing Script by Ken True at Saratoga Weather - Script by SE Lincoln Weather.